Location: S�tio Afonso Gruber
(26.1760°S, 49.5250°W)
Time: 19:01:08
(UTC+00:00)

Cosmos 1869 Rocket - Visible Passes

Search period start: 26 September 2020 00:00
Search period end: 06 October 2020 00:00
Orbit: 604 x 634 km, 82.5° (Epoch: 25 September)

Date Brightness Start Highest point End Pass type
(mag) Time Alt. Az. Time Alt. Az. Time Alt. Az.
26 Sep 6.5 06:12:20 13° E 06:12:20 13° E 06:14:14 10° ESE visible
26 Sep 4.2 07:49:32 32° W 07:49:43 32° W 07:53:43 10° SSW visible
27 Sep 5.7 06:30:24 24° ESE 06:30:24 24° ESE 06:33:07 10° SSE visible
27 Sep 5.2 08:07:35 16° WSW 08:07:35 16° WSW 08:09:57 10° SW visible
28 Sep 5.0 06:48:20 34° SSE 06:48:20 34° SSE 06:50:59 10° SSE visible
29 Sep 5.0 07:06:09 28° S 07:06:09 28° S 07:08:21 10° S visible
30 Sep 5.5 07:23:54 18° SSW 07:23:54 18° SSW 07:25:16 10° SSW visible
01 Oct 6.6 06:04:24 12° SE 06:04:24 12° SE 06:04:48 10° SSE visible
02 Oct 6.3 06:22:02 14° SSE 06:22:02 14° SSE 06:22:37 10° SSE visible
03 Oct 6.2 06:39:36 12° S 06:39:36 12° S 06:39:57 10° S visible
